Location: Lake Almanor
(40.2485°N, 121.1442°W)
Time: 08:05:38
(UTC-08:00)

STARLINK-1116 - Pass Details

Date: 30 January 2020
Orbit: 348 x 351 km, 53.0° (Epoch: 18 February)

Event Time Altitude Azimuth Distance (km) Brightness Sun altitude
Rises 17:53:06 0° 319° (NW) 2,157 7.0 -6.7°
Reaches altitude 10° 17:55:34 10° 341° (NNW) 1,313 5.6 -7.1°
Maximum altitude 17:57:36 17° 25° (NNE) 978 4.5 -7.5°
Enters shadow 17:59:29 11° 67° (ENE) 1,264 4.8 -7.9°
